WB5CFT Weather Reports


Display with metric or nautical units.
time (UTC)temp
F
wind
direction
speed
MPH
gust
MPH
rain 1hr
in
rain 24hr
in
rain mn
in
humidity
%
barometer
mb
20260507181826 63 108 0.0 1.0 0.00 0.00 0.00 52 1020.3
20260507181322 63 95 3.0 4.0 0.00 0.00 0.00 51 1020.3
20260507180819 65 205 1.0 1.0 0.00 0.00 0.00 50 1020.4
20260507180316 63 79 0.0 0.0 0.00 0.00 0.00 51 1020.5
20260507175811 63 43 0.0 2.0 0.00 0.00 0.00 49 1020.7
20260507175308 62 302 1.0 2.0 0.00 0.00 0.00 51 1020.8
20260507174805 62 133 0.0 0.0 0.00 0.00 0.00 51 1020.9
20260507174303 62 175 0.0 0.0 0.00 0.00 0.00 53 1021.3
20260507173801 61 188 0.0 0.0 0.00 0.00 0.00 53 1021.1
20260507173258 61 172 0.0 0.0 0.00 0.00 0.00 54 1021.4
20260507172754 61 147 2.0 3.0 0.00 0.00 0.00 53 1021.3
20260507172251 62 91 3.0 3.0 0.00 0.00 0.00 52 1021.4
20260507171746 63 71 1.0 4.0 0.00 0.00 0.00 52 1021.4
20260507171244 62 70 0.0 0.0 0.00 0.00 0.00 52 1021.4
20260507170740 63 76 3.0 4.0 0.00 0.00 0.00 50 1021.6
20260507170237 62 195 0.0 0.0 0.00 0.00 0.00 51 1021.8
20260507165733 60 252 0.0 0.0 0.00 0.00 0.00 53 1021.7
20260507165229 60 239 0.0 1.0 0.00 0.00 0.00 54 1021.9
20260507164725 62 122 0.0 0.0 0.00 0.00 0.00 52 1021.9
20260507164223 60 84 0.0 0.0 0.00 0.00 0.00 53 1022.0
20260507163720 61 221 0.0 0.0 0.00 0.00 0.00 52 1022.1
20260507163218 60 214 0.0 0.0 0.00 0.00 0.00 54 1022.3
20260507162713 61 169 0.0 0.0 0.00 0.00 0.00 52 1022.4
20260507162209 60 144 0.0 0.0 0.00 0.00 0.00 54 1022.4
20260507161706 60 47 0.0 0.0 0.00 0.00 0.00 53 1022.5
20260507161203 59 22 0.0 0.0 0.00 0.00 0.00 54 1022.6
20260507160659 58 30 0.0 0.0 0.00 0.00 0.00 55 1022.6
20260507160156 58 294 0.0 0.0 0.00 0.00 0.00 55 1022.5
20260507155651 58 295 0.0 0.0 0.00 0.00 0.00 56 1022.6
20260507155148 59 299 1.0 2.0 0.00 0.00 0.00 55 1022.7
20260507154644 57 39 0.0 0.0 0.00 0.00 0.00 57 1022.7
20260507154143 58 327 0.0 0.0 0.00 0.00 0.00 56 1022.7
20260507153639 57 331 0.0 0.0 0.00 0.00 0.00 56 1022.6
20260507153135 57 344 3.0 3.0 0.00 0.00 0.00 56 1022.8
20260507152632 57 276 0.0 0.0 0.00 0.00 0.00 56 1022.9
20260507152127 56 276 0.0 0.0 0.00 0.00 0.00 57 1022.9
20260507151624 56 332 0.0 0.0 0.00 0.00 0.00 57 1022.9
20260507151121 56 352 0.0 0.0 0.00 0.00 0.00 58 1022.9
20260507150618 55 315 0.0 0.0 0.00 0.00 0.00 58 1023.1
20260507150114 55 297 0.0 0.0 0.00 0.00 0.00 57 1023.0
20260507145609 56 288 1.0 1.0 0.00 0.00 0.00 57 1023.1
20260507145108 55 277 1.0 2.0 0.00 0.00 0.00 58 1023.2
20260507144603 55 308 0.0 0.0 0.00 0.00 0.00 59 1023.2
20260507144102 55 316 2.0 3.0 0.00 0.00 0.00 58 1023.4
20260507143558 54 329 4.0 6.0 0.00 0.00 0.00 59 1023.5
20260507143056 54 299 0.0 0.0 0.00 0.00 0.00 59 1023.4
20260507142555 53 317 0.0 0.0 0.00 0.00 0.00 60 1023.4
20260507142053 53 313 0.0 0.0 0.00 0.00 0.00 60 1023.4
20260507141549 53 317 1.0 2.0 0.00 0.00 0.00 60 1023.6
20260507141046 53 304 0.0 1.0 0.00 0.00 0.00 61 1023.2
20260507140542 53 339 1.0 3.0 0.00 0.00 0.00 61 1023.6
20260507140040 53 304 1.0 1.0 0.00 0.00 0.00 61 1023.4
20260507135537 53 320 0.0 0.0 0.00 0.00 0.00 62 1023.6
20260507135034 52 306 0.0 0.0 0.00 0.00 0.00 63 1023.4
20260507134530 52 321 0.0 1.0 0.00 0.00 0.00 63 1023.5
20260507134026 52 348 0.0 0.0 0.00 0.00 0.00 64 1023.6
20260507133523 52 289 0.0 0.0 0.00 0.00 0.00 63 1023.6
20260507133021 52 346 0.0 0.0 0.00 0.00 0.00 64 1023.4
20260507132517 51 333 0.0 0.0 0.00 0.00 0.00 64 1023.4
20260507132013 51 325 2.0 6.0 0.00 0.00 0.00 64 1023.4
20260507131510 51 319 0.0 1.0 0.00 0.00 0.00 64 1023.4
20260507131008 51 356 1.0 1.0 0.00 0.00 0.00 64 1023.4
20260507130504 51 322 8.0 11.0 0.00 0.00 0.00 64 1023.0
20260507130003 51 300 0.0 0.0 0.00 0.00 0.00 64 1023.0
20260507125501 51 328 0.0 1.0 0.00 0.00 0.00 64 1022.9
20260507124958 51 295 3.0 4.0 0.00 0.00 0.00 64 1022.8
20260507124454 51 350 0.0 1.0 0.00 0.00 0.00 64 1022.8
20260507123952 51 276 3.0 4.0 0.00 0.00 0.00 64 1022.8
20260507123450 51 1 7.0 10.0 0.00 0.00 0.00 64 1022.8
20260507122946 51 330 2.0 4.0 0.00 0.00 0.00 64 1022.8
20260507122441 51 329 6.0 8.0 0.00 0.00 0.00 64 1022.8
20260507121937 51 337 6.0 8.0 0.00 0.00 0.00 64 1022.7
20260507121433 51 307 0.0 2.0 0.00 0.00 0.00 64 1022.6
20260507120930 51 303 1.0 2.0 0.00 0.00 0.00 64 1022.6
20260507120426 51 312 6.0 10.0 0.00 0.00 0.00 64 1022.6
20260507115922 51 303 0.0 0.0 0.00 0.00 0.00 64 1022.4
20260507115419 51 301 1.0 2.0 0.00 0.00 0.00 64 1022.4
20260507114914 51 348 9.0 13.0 0.00 0.00 0.00 64 1022.6
20260507114412 51 274 0.0 2.0 0.00 0.00 0.00 64 1022.5
20260507113909 51 309 0.0 2.0 0.00 0.00 0.00 64 1022.5
20260507113406 51 335 6.0 9.0 0.00 0.00 0.00 64 1022.4
20260507112903 51 334 3.0 6.0 0.00 0.00 0.00 64 1022.6
20260507112400 51 315 2.0 6.0 0.00 0.00 0.00 64 1022.4
20260507111858 51 287 5.0 8.0 0.00 0.00 0.00 64 1022.5
20260507111354 51 286 6.0 7.0 0.00 0.00 0.00 64 1022.3
20260507110850 51 301 6.0 9.0 0.00 0.00 0.00 64 1022.1
20260507110347 51 312 3.0 4.0 0.00 0.00 0.00 64 1022.4
20260507105844 51 316 3.0 4.0 0.00 0.00 0.00 64 1022.3
20260507105340 51 320 3.0 4.0 0.00 0.00 0.00 64 1022.3
20260507104837 51 332 4.0 4.0 0.00 0.00 0.00 64 1021.8
20260507104334 51 307 1.0 3.0 0.00 0.00 0.00 65 1021.9
20260507103830 51 302 4.0 7.0 0.00 0.00 0.00 65 1022.0
20260507103327 51 339 0.0 1.0 0.00 0.00 0.00 65 1022.0
20260507102823 51 338 4.0 7.0 0.00 0.00 0.00 64 1021.8
20260507102320 51 317 9.0 13.0 0.00 0.00 0.00 64 1021.6
20260507101816 51 310 4.0 6.0 0.00 0.00 0.00 64 1021.7
20260507101316 51 325 2.0 3.0 0.00 0.00 0.00 63 1021.7
20260507100813 51 299 3.0 7.0 0.00 0.00 0.00 63 1021.5
20260507100311 52 282 2.0 3.0 0.00 0.00 0.00 63 1021.5
20260507095809 52 329 3.0 4.0 0.00 0.00 0.00 63 1021.4
20260507095306 52 271 4.0 7.0 0.00 0.00 0.00 62 1021.3
20260507094802 52 281 4.0 7.0 0.00 0.00 0.00 62 1021.3
20260507094259 52 327 4.0 9.0 0.00 0.00 0.00 62 1021.1
20260507093756 52 325 9.0 11.0 0.00 0.00 0.00 61 1021.2
20260507093255 53 286 1.0 2.0 0.00 0.00 0.00 61 1020.9
20260507092752 53 306 6.0 10.0 0.00 0.00 0.00 61 1020.8
20260507092248 53 279 3.0 7.0 0.00 0.00 0.00 60 1020.7
20260507091745 53 337 4.0 7.0 0.00 0.00 0.00 60 1020.8
20260507091241 53 319 4.0 4.0 0.00 0.00 0.00 60 1020.7
20260507090736 53 304 4.0 7.0 0.00 0.00 0.00 59 1020.6
20260507090233 53 273 5.0 7.0 0.00 0.00 0.00 59 1020.4
20260507085730 53 309 5.0 11.0 0.00 0.00 0.00 58 1020.6
20260507085227 53 281 1.0 2.0 0.00 0.00 0.00 58 1020.4
20260507084724 53 294 8.0 10.0 0.00 0.00 0.00 59 1020.3
20260507084221 53 324 4.0 7.0 0.00 0.00 0.00 58 1020.4
20260507083718 53 322 1.0 4.0 0.00 0.00 0.00 58 1020.3
20260507083215 53 305 2.0 7.0 0.00 0.00 0.00 58 1020.3
20260507082711 53 255 3.0 6.0 0.00 0.00 0.00 58 1020.3
20260507082207 54 297 4.0 6.0 0.00 0.00 0.00 58 1020.4
20260507081704 54 275 5.0 9.0 0.00 0.00 0.00 57 1020.4
20260507081200 54 302 7.0 10.0 0.00 0.00 0.00 57 1020.4
20260507080657 54 266 1.0 3.0 0.00 0.00 0.00 57 1020.3
20260507080153 54 292 5.0 10.0 0.00 0.00 0.00 57 1020.7
20260507075648 54 318 10.0 13.0 0.00 0.00 0.00 57 1020.3
20260507075144 54 299 7.0 10.0 0.00 0.00 0.00 58 1020.3
20260507074641 54 266 4.0 7.0 0.00 0.00 0.00 57 1020.4
20260507074140 54 285 5.0 9.0 0.00 0.00 0.00 58 1020.5
20260507073636 54 314 9.0 10.0 0.00 0.00 0.00 57 1020.6
20260507073132 54 335 3.0 11.0 0.00 0.00 0.00 58 1020.8
20260507072630 54 278 4.0 7.0 0.00 0.00 0.00 58 1020.9
20260507072127 54 276 1.0 2.0 0.00 0.00 0.00 58 1020.7
20260507071624 54 323 5.0 8.0 0.00 0.00 0.00 58 1020.7
20260507071120 54 267 1.0 2.0 0.00 0.00 0.00 58 1020.3
20260507070618 54 315 1.0 1.0 0.00 0.00 0.00 58 1020.0
20260507070115 54 279 4.0 6.0 0.00 0.00 0.00 58 1020.0
20260507065611 54 284 5.0 7.0 0.00 0.00 0.00 58 1019.6
20260507065108 55 325 10.0 15.0 0.00 0.00 0.00 57 1019.5
20260507064606 55 269 5.0 8.0 0.00 0.00 0.00 57 1019.3
20260507064104 56 288 6.0 10.0 0.00 0.00 0.00 56 1019.2
20260507063601 56 6 5.0 8.0 0.00 0.00 0.00 56 1018.9
20260507063059 56 301 3.0 4.0 0.00 0.00 0.00 55 1019.0
20260507062555 57 287 9.0 13.0 0.00 0.00 0.00 55 1019.1
20260507062053 57 279 9.0 14.0 0.00 0.00 0.00 54 1018.7
20260507061550 57 290 7.0 10.0 0.00 0.00 0.00 54 1018.5
20260507061048 57 322 5.0 7.0 0.00 0.00 0.00 54 1018.5
20260507060546 58 282 4.0 6.0 0.00 0.00 0.00 53 1018.4
20260507060042 58 310 6.0 9.0 0.00 0.00 0.00 53 1018.4
20260507055537 59 321 6.0 11.0 0.00 0.00 0.00 52 1018.4
20260507055034 59 271 7.0 11.0 0.00 0.00 0.00 51 1018.3
20260507054530 60 315 13.0 16.0 0.00 0.00 0.00 50 1018.0
20260507054027 61 320 7.0 13.0 0.00 0.00 0.00 48 1018.1
20260507053525 61 317 5.0 8.0 0.00 0.00 0.00 46 1017.8
20260507053023 64 303 7.0 11.0 0.00 0.00 0.00 41 1017.5
20260507052521 66 305 10.0 13.0 0.00 0.00 0.00 29 1017.4
20260507052017 67 313 3.0 3.0 0.00 0.00 0.00 26 1017.1
20260507051515 68 217 0.0 0.0 0.00 0.00 0.00 24 1016.3
20260507051012 67 212 0.0 0.0 0.00 0.00 0.00 25 1016.2
20260507050508 67 211 0.0 0.0 0.00 0.00 0.00 25 1016.2
20260507050005 67 211 0.0 0.0 0.00 0.00 0.00 25 1016.2
20260507045501 68 211 0.0 0.0 0.00 0.00 0.00 25 1016.3
20260507044959 68 211 0.0 0.0 0.00 0.00 0.00 25 1016.1
20260507044455 69 211 0.0 0.0 0.00 0.00 0.00 25 1016.1
20260507043951 69 211 0.0 0.0 0.00 0.00 0.00 25 1015.9
20260507043448 70 213 0.0 0.0 0.00 0.00 0.00 24 1016.0
20260507042944 70 212 0.0 0.0 0.00 0.00 0.00 24 1016.0
20260507042441 70 226 0.0 0.0 0.00 0.00 0.00 23 1015.8
20260507041937 70 237 3.0 4.0 0.00 0.00 0.00 23 1015.7
20260507041434 70 222 0.0 0.0 0.00 0.00 0.00 24 1015.6
20260507040931 71 249 0.0 0.0 0.00 0.00 0.00 23 1015.8
20260507040432 70 250 0.0 0.0 0.00 0.00 0.00 23 1015.5
20260507035928 71 226 0.0 0.0 0.00 0.00 0.00 23 1015.6
20260507035424 71 215 0.0 0.0 0.00 0.00 0.00 24 1015.5
20260507034921 71 221 1.0 3.0 0.00 0.00 0.00 23 1015.7
20260507034418 72 220 2.0 3.0 0.00 0.00 0.00 23 1015.5
20260507033916 72 218 1.0 3.0 0.00 0.00 0.00 22 1015.3
20260507033414 73 226 0.0 1.0 0.00 0.00 0.00 22 1015.3
20260507032911 73 245 1.0 2.0 0.00 0.00 0.00 21 1015.0
20260507032408 73 238 0.0 2.0 0.00 0.00 0.00 21 1015.1
20260507031903 74 228 2.0 3.0 0.00 0.00 0.00 21 1015.0
20260507031400 74 241 3.0 3.0 0.00 0.00 0.00 20 1015.1
20260507030857 74 266 4.0 6.0 0.00 0.00 0.00 20 1014.9
20260507030354 74 249 0.0 1.0 0.00 0.00 0.00 20 1014.9
20260507025851 74 259 2.0 3.0 0.00 0.00 0.00 21 1014.7
20260507025349 74 247 0.0 1.0 0.00 0.00 0.00 21 1014.7
20260507024846 74 255 1.0 2.0 0.00 0.00 0.00 21 1014.6
20260507024343 74 231 0.0 0.0 0.00 0.00 0.00 21 1014.5
20260507023839 74 250 3.0 6.0 0.00 0.00 0.00 20 1014.6
20260507023336 75 248 2.0 3.0 0.00 0.00 0.00 20 1014.4
20260507022833 75 220 0.0 0.0 0.00 0.00 0.00 20 1014.4
20260507022330 75 232 3.0 4.0 0.00 0.00 0.00 20 1014.4
20260507021826 75 236 2.0 2.0 0.00 0.00 0.00 20 1014.4
20260507021321 75 236 0.0 1.0 0.00 0.00 0.00 20 1014.3
20260507020819 76 231 0.0 0.0 0.00 0.00 0.00 20 1014.3
20260507020315 76 244 3.0 4.0 0.00 0.00 0.00 20 1014.3
20260507015813 77 245 4.0 7.0 0.00 0.00 0.00 19 1014.1
20260507015311 77 257 3.0 4.0 0.00 0.00 0.00 19 1014.0
20260507014807 77 253 3.0 6.0 0.00 0.00 0.00 19 1014.0
20260507014304 78 248 5.0 8.0 0.00 0.00 0.00 18 1013.8
20260507013800 78 244 5.0 7.0 0.00 0.00 0.00 18 1013.8
20260507013258 78 271 5.0 6.0 0.00 0.00 0.00 18 1013.7
20260507012755 78 222 5.0 11.0 0.00 0.00 0.00 18 1013.7
20260507012250 78 243 5.0 9.0 0.00 0.00 0.00 18 1013.6
20260507011748 79 275 4.0 6.0 0.00 0.00 0.00 18 1013.6
20260507011244 79 255 5.0 8.0 0.00 0.00 0.00 18 1013.8
20260507010744 79 263 7.0 10.0 0.00 0.00 0.00 18 1013.4
20260507010240 80 280 8.0 14.0 0.00 0.00 0.00 17 1013.5
20260507005738 80 280 4.0 4.0 0.00 0.00 0.00 17 1013.5
20260507005234 80 276 1.0 2.0 0.00 0.00 0.00 17 1013.3
20260507004731 80 249 1.0 2.0 0.00 0.00 0.00 17 1013.2
20260507004229 81 255 1.0 7.0 0.00 0.00 0.00 18 1013.2
20260507003725 81 235 3.0 6.0 0.00 0.00 0.00 17 1012.9
20260507003220 81 235 5.0 13.0 0.00 0.00 0.00 17 1012.8
20260507002716 81 259 3.0 7.0 0.00 0.00 0.00 17 1012.9
20260507002212 81 285 6.0 8.0 0.00 0.00 0.00 17 1012.8
20260507001709 81 269 4.0 7.0 0.00 0.00 0.00 17 1012.8
20260507001207 81 253 9.0 11.0 0.00 0.00 0.00 16 1012.8
20260507000703 81 262 5.0 6.0 0.00 0.00 0.00 16 1012.8
20260507000158 81 245 8.0 10.0 0.00 0.00 0.00 16 1012.8
20260506235656 81 290 2.0 4.0 0.00 0.00 0.00 17 1012.7
20260506235151 82 276 2.0 6.0 0.00 0.00 0.00 17 1012.5
20260506234648 82 224 4.0 6.0 0.00 0.00 0.00 18 1012.5
20260506234145 82 217 4.0 7.0 0.00 0.00 0.00 17 1012.7
20260506233642 82 261 9.0 16.0 0.00 0.00 0.00 17 1012.6
20260506233139 82 262 7.0 10.0 0.00 0.00 0.00 17 1012.5
20260506232635 82 270 3.0 10.0 0.00 0.00 0.00 17 1012.3
20260506232131 81 248 7.0 13.0 0.00 0.00 0.00 18 1012.4
20260506231628 82 236 5.0 10.0 0.00 0.00 0.00 17 1012.5
20260506231127 82 254 5.0 11.0 0.00 0.00 0.00 18 1012.3
20260506230623 82 248 5.0 9.0 0.00 0.00 0.00 17 1012.5
20260506230120 82 251 2.0 4.0 0.00 0.00 0.00 18 1012.5
20260506225617 82 236 6.0 10.0 0.00 0.00 0.00 18 1012.3
20260506225113 82 261 7.0 13.0 0.00 0.00 0.00 17 1012.3
20260506224610 82 294 4.0 6.0 0.00 0.00 0.00 18 1012.4
20260506224106 82 276 4.0 6.0 0.00 0.00 0.00 18 1012.3
20260506223602 82 292 4.0 8.0 0.00 0.00 0.00 18 1012.5
20260506223059 81 280 14.0 18.0 0.00 0.00 0.00 17 1012.2
20260506222556 82 252 0.0 1.0 0.00 0.00 0.00 18 1012.3
20260506222052 82 267 8.0 13.0 0.00 0.00 0.00 17 1012.3
20260506221550 82 246 5.0 8.0 0.00 0.00 0.00 17 1012.4
20260506221048 82 239 6.0 10.0 0.00 0.00 0.00 18 1012.3
20260506220543 82 237 3.0 7.0 0.00 0.00 0.00 18 1012.5
20260506220039 82 259 8.0 11.0 0.00 0.00 0.00 17 1012.5
20260506215536 81 303 9.0 14.0 0.00 0.00 0.00 17 1012.4
20260506215032 82 222 4.0 7.0 0.00 0.00 0.00 18 1012.6
20260506214529 81 268 10.0 14.0 0.00 0.00 0.00 17 1012.6
20260506214026 81 259 11.0 15.0 0.00 0.00 0.00 16 1012.5
20260506213524 81 248 16.0 22.0 0.00 0.00 0.00 17 1012.5
20260506213021 82 220 5.0 9.0 0.00 0.00 0.00 18 1012.6
20260506212518 82 233 6.0 13.0 0.00 0.00 0.00 16 1012.6
20260506212013 81 219 8.0 10.0 0.00 0.00 0.00 16 1012.5
20260506211509 82 307 2.0 6.0 0.00 0.00 0.00 17 1012.7
20260506211006 81 232 8.0 11.0 0.00 0.00 0.00 16 1012.8
20260506210502 81 256 7.0 11.0 0.00 0.00 0.00 16 1012.8
20260506205959 81 209 7.0 10.0 0.00 0.00 0.00 16 1012.8
20260506205456 81 251 8.0 10.0 0.00 0.00 0.00 16 1012.9
20260506204952 81 236 12.0 15.0 0.00 0.00 0.00 15 1012.9
20260506204450 81 267 9.0 15.0 0.00 0.00 0.00 16 1013.0
20260506203947 80 228 8.0 13.0 0.00 0.00 0.00 17 1013.3
20260506203444 80 230 8.0 13.0 0.00 0.00 0.00 17 1012.8
20260506202941 80 204 9.0 11.0 0.00 0.00 0.00 16 1012.9
20260506202438 82 282 12.0 18.0 0.00 0.00 0.00 16 1013.0
20260506201934 81 265 6.0 8.0 0.00 0.00 0.00 16 1013.3
20260506201432 80 286 8.0 9.0 0.00 0.00 0.00 15 1013.2
20260506200928 81 209 9.0 13.0 0.00 0.00 0.00 16 1013.2
20260506200425 80 246 8.0 13.0 0.00 0.00 0.00 16 1013.3
20260506195916 80 254 8.0 10.0 0.00 0.00 0.00 17 1013.4
20260506195413 80 259 9.0 15.0 0.00 0.00 0.00 16 1013.6
20260506194910 80 221 9.0 15.0 0.00 0.00 0.00 16 1013.5
20260506194407 80 239 3.0 6.0 0.00 0.00 0.00 18 1013.5
20260506193904 81 222 6.0 10.0 0.00 0.00 0.00 18 1013.5
20260506193401 80 239 9.0 11.0 0.00 0.00 0.00 18 1013.7
20260506192857 80 263 7.0 13.0 0.00 0.00 0.00 19 1013.6
20260506192354 80 243 10.0 15.0 0.00 0.00 0.00 19 1013.6
20260506191851 80 246 7.0 16.0 0.00 0.00 0.00 19 1013.7
20260506191347 79 212 2.0 3.0 0.00 0.00 0.00 20 1013.7
20260506190844 80 273 15.0 21.0 0.00 0.00 0.00 19 1013.9
20260506190340 80 241 3.0 7.0 0.00 0.00 0.00 20 1014.0
20260506185837 79 241 5.0 8.0 0.00 0.00 0.00 20 1013.8
20260506185334 79 228 2.0 4.0 0.00 0.00 0.00 22 1014.0
20260506184831 79 238 4.0 8.0 0.00 0.00 0.00 21 1014.0
20260506184328 79 220 12.0 16.0 0.00 0.00 0.00 21 1014.1
20260506183826 78 310 8.0 14.0 0.00 0.00 0.00 21 1014.0
20260506183320 78 248 10.0 11.0 0.00 0.00 0.00 20 1014.3
20260506182818 78 196 4.0 6.0 0.00 0.00 0.00 21 1014.3
20260506182315 78 253 4.0 10.0 0.00 0.00 0.00 21 1014.5